Flag for U.S.A. Weather past 2 weeks in Bismarck, North Dakota, U.S.A.

Now
73 °F

Sunny.


Feels Like: 76 °F
Forecast: 43 / 74 °F
Wind: 9 mph from Southeast

Location: Bismarck Municipal Airport

Current Time: May 22, 2015 at 1:10:40 PM

Latest Report: May 22, 2015 at 12:52 PM


Visibility: 10 mi

Pressure: 30.14 "Hg

Humidity: 27%

Dew point: 37 °F

Location of BismarckLocation

Historic Weather in Bismarck — Graph

°F

Bismarck temperature yesterday

Maximum temperature yesterday: 75 °F (at 4:52 PM)
Minimum temperature yesterday: 44 °F (at 4:52 AM)
Average temperature yesterday: 61 °F

Past Weeks' High & Low Weather Summary

 TemperatureHumidityPressure
High75 °F (May 21, 4:52 PM)97% (May 14, 5:52 AM)30.51 "Hg (May 14, 5:52 AM)
Low27 °F (May 19, 4:52 AM)18% (May 21, 4:52 PM)29.57 "Hg (May 16, 6:52 PM)
Average49 °F70%30.09 "Hg
* Reported May 7 11:52 AM — May 22 11:52 AM, Bismarck, Weather by CustomWeather, © 2015

Note: Actual official high and low records may vary slightly from our data, if they occured in-between our weather recording intervals... More about our weather records

Advertising

Bismarck weather history for previous 24 hours

 ConditionsComfort  
Time TempWeatherWind HumidityBarometerVisibility
11:52 AM
Fri, May 22
72 °FSunny.5 mph29%30.15 "Hg10 mi
10:52 AM68 °FSunny.3 mph35%30.16 "Hg10 mi
9:52 AM62 °FSunny.No wind54%30.16 "Hg10 mi
8:52 AM54 °FSunny.No wind72%30.17 "Hg9 mi
7:52 AM50 °FSunny.No wind77%30.17 "Hg10 mi
6:52 AM40 °FClear.No wind93%30.18 "Hg10 mi
5:52 AM43 °FClear.5 mph86%30.16 "Hg10 mi
4:52 AM43 °FClear.5 mph86%30.15 "Hg10 mi
3:52 AM47 °FClear.7 mph80%30.15 "Hg10 mi
2:52 AM47 °FClear.6 mph83%30.14 "Hg10 mi
1:52 AM49 °FClear.8 mph77%30.14 "Hg10 mi
12:52 AM53 °FPassing clouds.7 mph66%30.14 "Hg10 mi
11:52 PM
Thu, May 21
54 °FPassing clouds.7 mph69%30.13 "Hg10 mi
10:52 PM58 °FOvercast.8 mph60%30.12 "Hg10 mi
9:52 PM59 °FPartly sunny.8 mph54%30.11 "Hg10 mi
8:52 PM66 °FPartly sunny.8 mph39%30.09 "Hg10 mi
7:52 PM71 °FSunny.3 mph36%30.09 "Hg10 mi
6:52 PM69 °FOvercast.5 mph36%30.10 "Hg10 mi
5:52 PM72 °FPartly sunny.No wind31%30.11 "Hg10 mi
4:52 PM75 °FPassing clouds.3 mph18%30.12 "Hg10 mi
3:52 PM74 °FSunny.No wind19%30.13 "Hg10 mi
2:52 PM74 °FScattered clouds.5 mph21%30.14 "Hg10 mi
1:52 PM74 °FSunny.7 mph25%30.15 "Hg10 mi
Weather by CustomWeather, © 2015

See weather overviewHow to use our weather pages